IST,Max TemperatureF,Mean TemperatureF,Min TemperatureF,Max Dew PointF,MeanDew PointF,Min DewpointF,Max Humidity, Mean Humidity, Min Humidity, Max Sea Level PressureIn, Mean Sea Level PressureIn, Min Sea Level PressureIn, Max VisibilityMiles, Mean VisibilityMiles, Min VisibilityMiles, Max Wind SpeedMPH, Mean Wind SpeedMPH, Max Gust SpeedMPH,PrecipitationIn, CloudCover, Events, WindDirDegrees
2012-10-1,98,84,71,65,61,57,73,47,17,29.92,29.85,29.72,2,2,1,7,1,,0.00,1,,344
2012-10-2,98,85,72,65,61,52,73,45,15,29.89,29.81,29.65,2,2,1,6,1,,0.00,1,,210
2012-10-3,96,85,74,77,58,48,69,42,13,29.80,29.74,29.62,2,2,1,7,1,,0.00,2,,60
2012-10-4,100,85,70,57,55,52,64,37,14,29.77,29.72,29.61,2,2,1,8,2,,0.00,1,,264
2012-10-5,99,88,76,59,55,51,54,35,14,29.86,29.80,29.69,2,2,1,12,4,,0.00,1,,289
2012-10-6,98,84,71,63,57,48,73,41,15,29.95,29.87,29.75,2,2,1,7,1,,0.00,,,300
2012-10-7,97,82,67,62,55,50,73,39,13,29.98,29.90,29.74,2,2,1,7,1,,0.00,1,,107
2012-10-8,93,82,70,62,59,55,73,50,28,29.98,29.91,29.81,2,2,1,7,1,17,0.00,2,,99
2012-10-9,96,83,70,65,60,57,69,47,20,29.92,29.85,29.72,3,2,1,7,2,,0.00,3,,94
2012-10-10,94,81,68,64,58,50,83,48,14,29.95,29.88,29.77,2,2,1,8,1,,0.00,2,,90
2012-10-11,95,81,67,62,56,49,64,43,16,29.95,29.88,29.75,2,2,1,8,1,,0.00,,,270
2012-10-12,95,80,66,59,54,48,73,43,12,29.95,29.87,29.77,3,2,1,10,2,,0.00,1,,250
2012-10-13,95,82,68,61,55,50,64,41,15,29.95,29.88,29.80,2,2,1,7,1,,0.00,3,,297
2012-10-14,97,84,70,61,56,50,64,40,13,30.01,29.93,29.79,2,2,1,8,2,,0.00,1,,305
2012-10-15,98,84,69,61,55,48,60,38,12,30.04,29.95,29.83,2,2,1,8,1,,0.00,2,,270
2012-10-16,93,80,66,64,58,55,73,50,22,30.09,30.03,29.91,2,2,1,13,7,,0.00,2,,77
2012-10-17,94,81,68,64,59,55,73,48,20,30.06,29.99,29.88,2,2,1,6,1,,0.00,3,,-1
2012-10-18,94,84,73,62,58,55,61,43,21,30.06,29.98,29.85,2,2,1,8,6,,0.00,3,,75
2012-10-19,90,81,72,61,58,55,57,45,28,30.06,29.97,29.86,2,2,1,9,4,,0.00,2,,75
2012-10-20,91,82,73,71,61,55,65,52,31,30.06,30.00,29.91,2,2,1,10,4,,0.00,1,,92
2012-10-21,92,82,72,60,57,55,61,44,21,30.09,30.01,29.91,2,2,1,8,5,,0.00,2,,84
2012-10-22,90,80,71,61,59,55,69,49,21,30.09,30.02,29.90,2,2,1,8,3,,0.00,2,,76
2012-10-23,92,81,70,59,58,55,64,48,30,30.06,29.96,29.84,2,2,1,10,5,,0.01,3,,99
2012-10-24,89,78,67,58,54,51,64,48,23,30.01,29.95,29.85,2,2,1,9,4,,0.00,2,,41
2012-10-25,84,70,57,54,49,40,77,44,12,30.01,29.93,29.81,3,2,1,9,1,,0.00,,,310
2012-10-26,89,72,56,55,48,45,67,42,21,30.04,29.95,29.86,3,2,1,6,1,,0.00,,,112
2012-10-27,90,76,61,54,50,42,68,44,13,30.06,29.98,29.88,2,2,1,6,1,,0.00,,,191
2012-10-28,91,76,61,56,49,42,72,44,13,30.09,30.00,29.89,2,2,1,8,1,,0.00,,,23
2012-10-29,89,74,60,52,49,46,68,40,14,30.06,29.99,29.87,2,2,1,7,1,,0.00,,,55
2012-10-30,89,75,61,57,51,45,72,42,15,30.06,29.97,29.85,2,2,1,9,2,31,0.00,,,40
2012-10-31,89,75,61,57,51,47,72,44,16,30.06,29.97,29.86,2,1,1,8,1,,0.00,,,85